sat.trackr.live / text

‹ back to catalog

STARLINK-36681

NORAD 68720 · 2026-081X

PAYLOAD ACTIVE UNKNOWN

§ Identity

Operator
Country
US
Launch date
2026-04-14
Launch site
AFETR
Launch vehicle
Mass (kg)
RCS (m²)

Purposes: comms

External: N2YO · Heavens-Above · Gunter

§ Orbital elements

Epoch: 2026-09-19T11:20:05.656416Z

Period
93.85 min
Inclination
53.1584°
Eccentricity
0.0000687
Mean motion
15.34405791 rev/d
Perigee alt
462.2 km
Apogee alt
463.2 km
Semi-major
6,840.8 km
B*
4.9296e-4
RAAN
210.3118°
Arg perigee
86.5744°
Mean anomaly
273.5337°
Rev number
2,446

§ Raw data

STARLINK-366811 68720U 26081X   26262.47228769  .00016319  00000+0  49296-3 0  99952 68720  53.1584 210.3118 0000687  86.5744 273.5337 15.34405791 24467

JSON: /api/v1/satellites/68720 · /tle

For live sub-satellite position, see the globe view (requires WebGL).

§ Visibility from observer

Set your observer location to see the next 7 days of passes ≥ 10°. The values pass through the URL so the page stays shareable.

No JS? Fill the form by hand. The geolocation button needs JavaScript.